GW4452 Weather Reports


time (UTC)temp
C
wind
direction
speed
KPH
gust
KPH
rain 1hr
cm
rain 24hr
cm
rain mn
cm
humidity
%
barometer
mb
20260506004704 21 284 4.8 9.7 0.00 0.00 0.00 92 1015.9
20260506004204 21 297 3.2 4.8 0.00 0.00 0.00 92 1015.6
20260506003704 21 307 3.2 8.0 0.00 0.00 0.00 92 1015.9
20260506003206 21 327 1.6 8.0 0.00 0.00 0.00 92 1015.9
20260506002704 21 326 3.2 8.0 0.00 0.00 0.00 92 1015.7
20260506002204 21 261 1.6 8.0 0.00 0.00 0.00 92 1015.7
20260506001704 21 248 4.8 8.0 0.00 0.00 0.00 92 1015.6
20260506001204 21 356 1.6 4.8 0.00 0.00 0.00 92 1015.6
20260506000205 21 96 3.2 8.0 0.00 0.00 0.00 91 1015.9
20260505235705 21 96 3.2 8.0 0.00 0.00 0.00 92 1015.9
20260505234204 21 342 3.2 8.0 0.00 0.00 0.00 92 1015.9
20260505233704 21 106 1.6 8.0 0.00 0.00 0.00 92 1015.9
20260505233205 21 190 3.2 8.0 0.00 0.00 0.00 92 1015.9
20260505232704 21 193 3.2 8.0 0.00 0.00 0.00 92 1015.9
20260505232204 21 29 3.2 9.7 0.00 0.00 0.00 92 1016.0
20260505231704 21 208 3.2 8.0 0.00 0.00 0.00 92 1015.9
20260505231205 21 94 1.6 8.0 0.00 0.00 0.00 92 1015.9
20260505230704 21 238 3.2 8.0 0.00 0.00 0.00 92 1015.9
20260505230204 21 283 3.2 4.8 0.00 0.00 0.00 92 1016.2
20260505224204 21 142 1.6 8.0 0.00 0.00 0.00 92 1016.3
20260505223204 21 20 3.2 8.0 0.00 0.00 0.00 92 1016.5
20260505222704 21 159 3.2 11.3 0.00 0.00 0.00 92 1016.6
20260505222204 21 332 1.6 9.7 0.00 0.00 0.00 93 1016.6
20260505221704 21 307 3.2 4.8 0.00 0.00 0.00 92 1016.6
20260505221204 21 191 1.6 9.7 0.00 0.00 0.00 92 1016.3
20260505220704 21 81 6.4 9.7 0.00 0.00 0.00 92 1016.6
20260505220204 21 305 3.2 8.0 0.00 0.00 0.00 92 1016.6
20260505215705 21 160 1.6 8.0 0.00 0.00 0.00 92 1016.7
20260505215204 21 127 3.2 8.0 0.00 0.00 0.00 92 1016.6
20260505214704 21 95 3.2 8.0 0.00 0.00 0.00 91 1016.8
20260505214204 21 339 1.6 8.0 0.00 0.00 0.00 91 1016.8
20260505213204 21 145 0.0 4.8 0.00 0.00 0.00 91 1016.8
20260505212204 21 194 0.0 3.2 0.00 0.00 0.00 90 1016.9
20260505211704 21 102 0.0 3.2 0.00 0.00 0.00 90 1017.0
20260505211205 21 239 0.0 4.8 0.00 0.00 0.00 90 1017.3
20260505210704 21 280 3.2 4.8 0.00 0.00 0.00 90 1017.2
20260505205704 21 132 0.0 3.2 0.00 0.00 0.00 89 1017.3
20260505205205 21 294 1.6 3.2 0.00 0.00 0.00 90 1017.3
20260505204704 21 57 1.6 3.2 0.00 0.00 0.00 89 1017.3
20260505204204 21 201 3.2 4.8 0.00 0.00 0.00 89 1017.3
20260505203205 21 83 1.6 4.8 0.00 0.00 0.00 89 1017.3
20260505202704 21 310 1.6 4.8 0.00 0.00 0.00 89 1017.5
20260505202204 21 342 0.0 4.8 0.00 0.00 0.00 89 1017.3
20260505201705 21 159 0.0 3.2 0.00 0.00 0.00 89 1017.4
20260505201205 21 2 1.6 3.2 0.00 0.00 0.00 89 1017.3
20260505200705 21 117 1.6 3.2 0.00 0.00 0.00 88 1017.4
20260505200204 21 218 0.0 3.2 0.00 0.00 0.00 88 1017.5
20260505195704 21 19 0.0 3.2 0.00 0.00 0.00 88 1017.6
20260505194704 21 35 0.0 8.0 0.00 0.00 0.00 88 1017.3
20260505194204 21 59 0.0 3.2 0.00 0.00 0.00 88 1017.4
20260505193704 21 247 0.0 3.2 0.00 0.00 0.00 88 1017.5
20260505193205 21 27 0.0 3.2 0.00 0.00 0.00 88 1017.5
20260505192704 21 215 0.0 3.2 0.00 0.00 0.00 87 1017.6
20260505192204 21 202 1.6 3.2 0.00 0.00 0.00 87 1017.6
20260505191704 21 303 1.6 3.2 0.00 0.00 0.00 87 1017.6
20260505191203 21 349 1.6 3.2 0.00 0.00 0.00 87 1017.6
20260505190204 21 43 0.0 8.0 0.00 0.00 0.00 87 1017.6
20260505185204 21 313 0.0 4.8 0.00 0.00 0.00 87 1017.6
20260505184704 21 37 3.2 4.8 0.00 0.00 0.00 87 1017.6
20260505184205 21 223 1.6 4.8 0.00 0.00 0.00 87 1017.6
20260505183705 21 21 1.6 4.8 0.00 0.00 0.00 87 1017.6
20260505183204 21 340 3.2 4.8 0.00 0.00 0.00 87 1017.6
20260505181704 21 180 1.6 3.2 0.00 0.00 0.00 86 1017.6
20260505181204 21 102 0.0 3.2 0.00 0.00 0.00 86 1017.5
20260505180704 21 267 1.6 3.2 0.00 0.00 0.00 85 1017.6
20260505180205 21 1 0.0 3.2 0.00 0.00 0.00 85 1017.3
20260505175704 21 159 1.6 4.8 0.00 0.00 0.00 85 1017.3
20260505175204 21 194 1.6 8.0 0.00 0.00 0.00 85 1017.3
20260505174704 21 134 3.2 8.0 0.00 0.00 0.00 85 1017.6
20260505174204 21 102 1.6 4.8 0.00 0.00 0.00 85 1017.6
20260505173704 21 70 1.6 4.8 0.00 0.00 0.00 84 1017.6
20260505173204 21 84 3.2 4.8 0.00 0.00 0.00 84 1017.4
20260505172705 21 94 3.2 8.0 0.00 0.00 0.00 84 1017.6
20260505171706 21 117 1.6 12.9 0.00 0.00 0.00 83 1017.6
20260505171204 21 73 3.2 12.9 0.00 0.00 0.00 83 1017.3
20260505170704 21 66 3.2 8.0 0.00 0.00 0.00 83 1017.4
20260505170204 21 128 3.2 8.0 0.00 0.00 0.00 82 1017.3
20260505165705 22 130 4.8 9.7 0.00 0.00 0.00 82 1017.3
20260505165205 22 83 1.6 12.9 0.00 0.00 0.00 82 1017.3
20260505164705 22 128 4.8 12.9 0.00 0.00 0.00 82 1017.0
20260505164204 22 155 6.4 14.5 0.00 0.00 0.00 82 1016.9
20260505163704 22 90 3.2 11.3 0.00 0.00 0.00 82 1016.9
20260505162204 22 134 4.8 9.7 0.00 0.00 0.00 81 1016.9
20260505161704 22 149 4.8 11.3 0.00 0.00 0.00 81 1016.9
20260505161205 22 288 3.2 14.5 0.00 0.00 0.00 80 1016.9
20260505160204 22 107 1.6 9.7 0.00 0.00 0.00 80 1016.9
20260505153205 22 126 8.0 14.5 0.00 0.00 0.00 80 1016.5
20260505152704 22 106 4.8 11.3 0.00 0.00 0.00 81 1016.7
20260505152204 22 84 1.6 12.9 0.00 0.00 0.00 81 1016.5
20260505151705 22 169 3.2 12.9 0.00 0.00 0.00 81 1016.5
20260505140204 22 116 4.8 14.5 0.00 0.00 0.00 78 1015.9
20260505130205 23 128 4.8 20.9 0.00 0.00 0.00 72 1015.5
20260505124704 24 127 6.4 14.5 0.00 0.00 0.00 70 1015.5
20260505123704 24 141 8.0 22.5 0.00 0.00 0.00 70 1015.2
20260505123204 25 142 8.0 22.5 0.00 0.00 0.00 67 1015.2
20260505122704 25 91 8.0 12.9 0.00 0.00 0.00 68 1015.2
20260505122205 25 130 4.8 11.3 0.00 0.00 0.00 67 1015.0
20260505121705 25 114 8.0 16.1 0.00 0.00 0.00 65 1015.2
20260505121205 25 306 8.0 14.5 0.00 0.00 0.00 64 1014.9
20260505120704 25 270 3.2 16.1 0.00 0.00 0.00 65 1015.2
20260505120204 25 104 9.7 16.1 0.00 0.00 0.00 65 1015.1
20260505115705 25 100 6.4 14.5 0.00 0.00 0.00 65 1015.1
20260505115203 25 49 4.8 16.1 0.00 0.00 0.00 64 1015.2
20260505114704 25 114 8.0 16.1 0.00 0.00 0.00 63 1015.1
20260505114204 25 131 8.0 14.5 0.00 0.00 0.00 63 1015.0
20260505113704 25 238 4.8 19.3 0.00 0.00 0.00 62 1014.9
20260505112704 26 133 6.4 14.5 0.00 0.00 0.00 62 1014.6
20260505112204 25 18 4.8 16.1 0.00 0.00 0.00 61 1014.9
20260505111705 26 143 6.4 16.1 0.00 0.00 0.00 60 1014.9
20260505111204 26 112 6.4 19.3 0.00 0.00 0.00 59 1014.7
20260505110704 26 57 6.4 19.3 0.00 0.00 0.00 57 1014.5
20260505102205 27 59 3.2 16.1 0.00 0.00 0.00 58 1014.6
20260505101704 26 316 8.0 16.1 0.00 0.00 0.00 57 1014.6
20260505101204 26 130 8.0 14.5 0.00 0.00 0.00 58 1014.9
20260505100704 27 115 8.0 19.3 0.00 0.00 0.00 58 1014.9
20260505100204 26 139 4.8 19.3 0.00 0.00 0.00 59 1014.8
20260505095706 27 122 4.8 16.1 0.00 0.00 0.00 58 1014.7
20260505095205 27 125 4.8 16.1 0.00 0.00 0.00 60 1014.8
20260505094704 27 90 6.4 14.5 0.00 0.00 0.00 60 1014.7
20260505093704 27 141 6.4 12.9 0.00 0.00 0.00 60 1014.9
20260505093206 27 122 4.8 14.5 0.00 0.00 0.00 59 1015.1
20260505092704 27 155 9.7 14.5 0.00 0.00 0.00 59 1015.0
20260505092204 27 98 4.8 14.5 0.00 0.00 0.00 61 1015.1
20260505091204 26 185 6.4 16.1 0.00 0.00 0.00 60 1015.2
20260505090704 26 290 6.4 16.1 0.00 0.00 0.00 63 1014.9
20260505090204 26 124 8.0 20.9 0.00 0.00 0.00 63 1015.2
20260505085704 27 237 8.0 11.3 0.00 0.00 0.00 61 1015.2
20260505085205 27 329 3.2 24.1 0.00 0.00 0.00 62 1015.2
20260505084704 27 179 8.0 19.3 0.00 0.00 0.00 61 1015.2
20260505084204 27 19 4.8 11.3 0.00 0.00 0.00 62 1015.4
20260505083704 27 129 6.4 19.3 0.00 0.00 0.00 61 1015.3
20260505083204 27 359 4.8 19.3 0.00 0.00 0.00 60 1015.5
20260505082704 27 212 6.4 19.3 0.00 0.00 0.00 60 1015.6
20260505082204 27 103 4.8 14.5 0.00 0.00 0.00 60 1015.6
20260505081704 27 102 6.4 14.5 0.00 0.00 0.00 61 1015.8
20260505081204 26 237 4.8 19.3 0.00 0.00 0.00 61 1015.9
20260505080705 26 131 6.4 14.5 0.00 0.00 0.00 62 1015.9
20260505080205 26 301 11.3 14.5 0.00 0.00 0.00 62 1015.9
20260505075704 26 99 6.4 20.9 0.00 0.00 0.00 61 1015.9
20260505075204 27 241 6.4 12.9 0.00 0.00 0.00 60 1015.9
20260505074704 26 36 4.8 19.3 0.00 0.00 0.00 61 1015.9
20260505074205 26 86 8.0 20.9 0.00 0.00 0.00 62 1015.9
20260505073204 26 135 12.9 24.1 0.00 0.00 0.00 63 1015.9
20260505072705 26 76 8.0 22.5 0.00 0.00 0.00 64 1015.9
20260505072204 26 105 11.3 22.5 0.00 0.00 0.00 63 1016.2
20260505071704 26 114 12.9 16.1 0.00 0.00 0.00 63 1016.2
20260505071204 26 103 8.0 20.9 0.00 0.00 0.00 63 1016.3
20260505070204 26 85 6.4 19.3 0.00 0.00 0.00 64 1016.4
20260505065704 26 133 8.0 16.1 0.00 0.00 0.00 64 1016.6
20260505065204 27 118 8.0 16.1 0.00 0.00 0.00 64 1016.4
20260505064705 26 140 4.8 14.5 0.00 0.00 0.00 65 1016.6
20260505064204 26 332 3.2 24.1 0.00 0.00 0.00 66 1016.6
20260505063704 26 107 8.0 14.5 0.00 0.00 0.00 67 1016.9
20260505063204 25 137 8.0 22.5 0.00 0.00 0.00 67 1016.8
20260505062204 26 140 12.9 20.9 0.00 0.00 0.00 64 1016.7
20260505061704 26 39 6.4 16.1 0.00 0.00 0.00 64 1016.8
20260505061204 26 110 4.8 12.9 0.00 0.00 0.00 64 1016.9
20260505060705 26 206 3.2 14.5 0.00 0.00 0.00 66 1016.9
20260505060205 26 132 8.0 16.1 0.00 0.00 0.00 65 1017.2
20260505055204 25 134 11.3 24.1 0.00 0.00 0.00 65 1017.3
20260505054205 26 68 4.8 16.1 0.00 0.00 0.00 64 1016.9
20260505053705 26 158 6.4 20.9 0.00 0.00 0.00 67 1017.3
20260505053204 25 133 8.0 20.9 0.00 0.00 0.00 66 1017.3
20260505052204 25 266 1.6 19.3 0.00 0.00 0.00 68 1017.3
20260505051704 25 130 4.8 19.3 0.00 0.00 0.00 68 1017.3
20260505051204 25 125 3.2 12.9 0.00 0.00 0.00 70 1017.4
20260505050704 25 103 4.8 16.1 0.00 0.00 0.00 70 1017.3
20260505050204 25 127 3.2 16.1 0.00 0.00 0.00 70 1017.3
20260505041704 25 155 3.2 8.0 0.00 0.00 0.00 68 1017.2
20260505041204 25 153 3.2 8.0 0.00 0.00 0.00 68 1017.0
20260505040704 25 180 3.2 8.0 0.00 0.00 0.00 69 1016.9
20260505040206 25 110 3.2 8.0 0.00 0.00 0.00 71 1016.8
20260505035705 25 128 3.2 8.0 0.00 0.00 0.00 70 1016.9
20260505034706 24 150 1.6 4.8 0.00 0.00 0.00 71 1016.6
20260505034204 25 193 4.8 4.8 0.00 0.00 0.00 69 1016.6
20260505033704 24 195 1.6 4.8 0.00 0.00 0.00 71 1016.7
20260505032706 23 166 1.6 3.2 0.00 0.00 0.00 75 1016.7
20260505032204 22 98 3.2 4.8 0.00 0.00 0.00 77 1016.7
20260505031704 22 5 1.6 8.0 0.00 0.00 0.00 80 1016.9
20260505031204 21 76 1.6 8.0 0.00 0.00 0.00 82 1016.9
20260505030704 21 330 1.6 3.2 0.00 0.00 0.00 84 1016.9
20260505030204 20 124 3.2 3.2 0.00 0.00 0.00 86 1016.9
20260505025205 20 345 1.6 4.8 0.00 0.00 0.00 88 1017.0
20260505024704 20 271 0.0 3.2 0.00 0.00 0.00 88 1017.0
20260505023705 20 317 3.2 4.8 0.00 0.00 0.00 89 1017.1
20260505022705 19 309 3.2 8.0 0.00 0.00 0.00 91 1016.9
20260505022205 19 129 3.2 4.8 0.00 0.00 0.00 92 1016.9
20260505021204 19 173 1.6 4.8 0.00 0.00 0.00 92 1016.6
20260505020705 19 247 1.6 4.8 0.00 0.00 0.00 92 1016.6
20260505020203 19 303 1.6 4.8 0.00 0.00 0.00 93 1016.7
20260505014706 18 65 1.6 4.8 0.00 0.00 0.00 95 1016.6
20260505014204 18 74 1.6 4.8 0.00 0.00 0.00 95 1016.6
20260505013704 18 152 1.6 4.8 0.00 0.00 0.00 95 1016.6
20260505013204 18 138 1.6 4.8 0.00 0.00 0.00 95 1016.6
20260505012704 18 225 1.6 4.8 0.00 0.00 0.00 95 1016.8
20260505012204 18 144 1.6 4.8 0.00 0.00 0.00 95 1016.6
20260505011704 18 145 3.2 4.8 0.00 0.00 0.00 95 1016.5
20260505011204 18 146 1.6 4.8 0.00 0.00 0.00 95 1016.6
20260505010704 18 142 1.6 4.8 0.00 0.00 0.00 95 1016.6
20260505010204 17 117 1.6 4.8 0.00 0.00 0.00 95 1016.6